TimeAKDT,TemperatureF,Dew PointF,Humidity,Sea Level PressureIn,VisibilityMPH,Wind Direction,Wind SpeedMPH,Gust SpeedMPH,PrecipitationIn,Events,Conditions,WindDirDegrees,DateUTC
12:53 AM,37.0,34.0,89,29.31,10.0,NE,5.8,-,N/A,,Scattered Clouds,40,2013-09-27 08:53:00
1:53 AM,35.1,32.0,89,29.29,10.0,NNE,4.6,-,N/A,,Scattered Clouds,20,2013-09-27 09:53:00
2:53 AM,35.1,32.0,89,29.26,10.0,NE,8.1,-,N/A,,Scattered Clouds,40,2013-09-27 10:53:00
3:53 AM,35.1,32.0,89,29.24,10.0,NNE,6.9,-,N/A,,Scattered Clouds,30,2013-09-27 11:53:00
4:53 AM,37.9,32.0,79,29.21,10.0,NE,10.4,-,N/A,,Scattered Clouds,40,2013-09-27 12:53:00
5:53 AM,37.9,32.0,79,29.21,10.0,NE,4.6,-,N/A,,Scattered Clouds,40,2013-09-27 13:53:00
6:53 AM,37.0,30.9,79,29.19,10.0,NE,9.2,-,N/A,,Mostly Cloudy,50,2013-09-27 14:53:00
7:53 AM,35.1,32.0,89,29.18,10.0,NE,4.6,-,N/A,,Mostly Cloudy,40,2013-09-27 15:53:00
8:53 AM,37.0,32.0,82,29.18,10.0,NE,8.1,-,N/A,,Mostly Cloudy,40,2013-09-27 16:53:00
9:53 AM,39.9,35.1,83,29.18,10.0,NE,3.5,-,N/A,,Mostly Cloudy,40,2013-09-27 17:53:00
10:53 AM,46.0,35.1,66,29.18,10.0,ENE,3.5,-,N/A,,Mostly Cloudy,60,2013-09-27 18:53:00
11:53 AM,51.1,34.0,52,29.18,10.0,ENE,6.9,-,N/A,,Mostly Cloudy,60,2013-09-27 19:53:00
12:53 PM,54.0,32.0,43,29.17,10.0,East,9.2,-,N/A,,Mostly Cloudy,80,2013-09-27 20:53:00
1:53 PM,55.0,32.0,42,29.18,10.0,ENE,6.9,-,N/A,,Mostly Cloudy,70,2013-09-27 21:53:00
2:53 PM,57.0,32.0,39,29.17,10.0,NNE,5.8,-,N/A,,Mostly Cloudy,20,2013-09-27 22:53:00
3:53 PM,57.9,32.0,37,29.17,10.0,East,3.5,-,N/A,,Mostly Cloudy,80,2013-09-27 23:53:00
4:53 PM,57.9,33.1,39,29.17,10.0,East,3.5,-,N/A,,Mostly Cloudy,100,2013-09-28 00:53:00
5:53 PM,57.9,33.1,39,29.17,10.0,SSE,3.5,-,N/A,,Mostly Cloudy,160,2013-09-28 01:53:00
6:53 PM,55.0,34.0,45,29.18,10.0,Calm,Calm,-,N/A,,Mostly Cloudy,0,2013-09-28 02:53:00
7:53 PM,50.0,34.0,54,29.20,10.0,SSW,6.9,-,N/A,,Mostly Cloudy,200,2013-09-28 03:53:00
8:53 PM,46.9,33.1,59,29.23,10.0,Calm,Calm,-,N/A,,Mostly Cloudy,0,2013-09-28 04:53:00
9:53 PM,42.1,33.1,70,29.24,10.0,Calm,Calm,-,N/A,,Scattered Clouds,0,2013-09-28 05:53:00
10:53 PM,37.0,32.0,82,29.25,10.0,Calm,Calm,-,N/A,,Scattered Clouds,0,2013-09-28 06:53:00
11:53 PM,39.0,32.0,76,29.26,10.0,NNE,8.1,-,N/A,,Partly Cloudy,30,2013-09-28 07:53:00